DELTA 1 DEB, 4841

Orbit data source: Space-Track

DELTA 1 DEB, 4841 is space debris originally from a launch on Thu, 04 Jul 1968 UTC launched from the Air Force Western Test Range (AFWTR). Debris objects in space refer to the collection of defunct objects orbiting the Earth. Examples of debris include non-operational satellites, rocket bodies, and fragments generated from explosions, collisions, or faulty payload assembly.

Loading next visibility...
Identifier
4841, 1968-055D
Orbit
Active
Country
Flag of USUS
Related business
Manufacturer
Unknown
Mission
Spacecraft
Bus & Motor
Unknown
Mass
Unknown
Launch date (UTC)
1968-07-04 (57 years ago)
Launch vehicle
Unknown
Launch site
Air Force Western Test Range (AFWTR)
Object type
Payload
Rocket body
Debris
Shape & HBR
Unknown
Radar Cross Section
Small (<0.1 m²)

Expand to show TLE details & history
Last TLE update: 1 day ago

TLE from 1 day ago
0 DELTA 1 DEB
1 04841U 68055D   25259.76105829  .00000132  00000-0  23381-3 0  9998
2 04841 120.7327 215.2973 2701826  98.6941 342.3308  9.29197156110029
Epoch: 2025-09-16T18:15Z
TLE epoch observation values (Epoch: 2025-09-16T18:15:55.436Z)
Latitude
52.66952°
Longitude
-105.46037°
Altitude
825.911 km
Speed
8.315 km/s
True Right ascension
10h 57m 52s
True Declination
52° 30' 18"
Sunlit
Object was in daylight at epoch
Visualization orbit readout
Latitude
Unknown
Longitude
Unknown
Altitude
Unknown
Speed
Unknown
Apparent Right ascension
Unknown
Apparent Declination
Unknown
Sunlit
N/A
Visualization observer readout
Local Sidereal Time
17:03:05
Azimuth
Unknown
Elevation
Unknown
Doppler factor
Unknown
Orbital elements
Apogee altitude
5,760.529 km
Perigee altitude
596.458 km
Semi-major axis
9,556.63 km
Eccentricity
0.27018
Inclination
120.7327°
RAAN
215.2973°
Arg. of periapsis
98.6941°
True anomaly
328.72983°
Mean anomaly
342.3308°
Eccentric anomaly
336.04566°
Mean motion
2.3232 °/min
Orbital period
154.96 mins
BSTAR
0.00023381
Loading maneuver chart data...
Computing Atmospheric mass density...
Loading historical data...
Loading historical data...
Loading historical data...
Loading historical data...
Loading historical data...
Loading historical data...
Loading historical data...

Documentation

Showing up to 5 results
|